Temp
-7 -7 -6 -6 -6 -6 -6 -6 -6 -6 -6 -6 -6 -6 -6 -7 -7 -7 -7 -7 -7 -7 -7 -7 -7 -7 -7 -7 -7 -7 -7 -7 -7 -7 -7 -6 -6 -6 -7 -7 -7 -7 -7
-7 -6 -6 -6 -6 -6 -6 -6 -6 -6 -6 -6 -6 -7 -7 -7 -7 -7 -7 -7 -7 -7 -7 -7 -7 -7 -7 -7 -7 -7 -7 -7 -7 -6 -6 -6 -6 -7 -7 -7 -7 -7 -7
-7 -6 -6 -6 -5 -5 -6 -6 -6 -6 -6 -6 -6 -7 -7 -7 -7 -7 -7 -7 -7 -7 -7 -7 -7 -7 -7 -7 -7 -7 -7 -7 -7 -6 -6 -6 -7 -7 -7 -7 -7 -7 -7
-7 -7 -6 -6 -5 -5 -7 -7 -6 -6 -6 -7 -7 -7 -8 -7 -7 -7 -7 -7 -7 -7 -7 -7 -7 -7 -7 -7 -7 -7 -7 -6 -6 -7 -7 -7 -7 -7 -7 -7 -7 -7 -7
-7 -7 -6 -6 -6 -5 -7 -7 -7 -6 -6 -7 -8 -8 -8 -7 -7 -7 -8 -8 -7 -7 -7 -7 -7 -7 -7 -7 -7 -7 -6 -6 -6 -6 -7 -7 -7 -7 -7 -7 -7 -7 -7
-8 -8 -8 -7 -7 -7 -7 -7 -7 -7 -7 -8 -8 -8 -8 -8 -7 -8 -8 -7 -7 -7 -7 -7 -7 -7 -7 -7 -7 -6 -7 -6 -6 -7 -7 -7 -7 -7 -7 -7 -7 -7 -7
-8 -8 -8 -7 -7 -7 -7 -7 -8 -8 -8 -8 -8 -8 -8 -8 -8 -8 -8 -8 -8 -8 -8 -7 -7 -7 -7 -7 -7 -6 -6 -6 -7 -7 -7 -7 -7 -7 -7 -7 -7 -8 -8
-7 -7 -8 -7 -7 -7 -8 -8 -8 -8 -8 -8 -8 -8 -8 -8 -8 -8 -8 -8 -7 -7 -7 -7 -7 -7 -7 -7 -6 -6 -7 -7 -7 -7 -7 -8 -8 -8 -8 -8 -8 -8 -8
-8 -8 -8 -7 -7 -8 -8 -8 -8 -8 -8 -8 -8 -8 -8 -8 -8 -8 -8 -8 -8 -7 -7 -7 -7 -7 -6 -6 -6 -7 -7 -7 -7 -7 -8 -8 -8 -8 -8 -8 -8 -8 -8
-8 -7 -7 -7 -7 -8 -8 -8 -8 -8 -8 -8 -8 -8 -8 -8 -8 -8 -8 -7 -7 -7 -7 -7 -7 -7 -7 -6 -7 -7 -7 -7 -7 -8 -8 -9 -9 -8 -8 -8 -8 -9 -9
-8 -8 -8 -7 -8 -8 -8 -8 -8 -8 -8 -8 -8 -8 -8 -8 -8 -8 -8 -7 -7 -7 -7 -7 -7 -7 -6 -7 -7 -7 -7 -8 -8 -9 -9 -9 -9 -9 -9 -9 -9 -9 -9
-8 -8 -7 -8 -9 -8 -9 -8 -9 -9 -9 -8 -8 -8 -8 -8 -7 -7 -7 -7 -7 -7 -7 -7 -7 -7 -7 -7 -7 -7 -8 -7 -8 -9 -9 -9 -9 -9 -9 -9 -9 -9 -9
-7 -8 -8 -8 -8 -9 -9 -9 -9 -8 -8 -8 -8 -8 -8 -8 -7 -7 -7 -7 -7 -7 -7 -6 -7 -7 -7 -7 -7 -7 -7 -7 -8 -8 -9 -9 -9 -9 -9 -9 -9 -9 -10
-7 -8 -8 -8 -8 -8 -8 -9 -9 -8 -8 -8 -8 -8 -8 -8 -7 -7 -7 -7 -6 -6 -6 -6 -6 -7 -7 -7 -7 -7 -7 -8 -8 -9 -9 -9 -9 -9 -9 -9 -9 -10 -10
-7 -7 -8 -9 -8 -8 -7 -8 -8 -8 -8 -8 -8 -8 -8 -7 -7 -7 -7 -7 -6 -6 -6 -6 -6 -7 -7 -7 -7 -8 -8 -8 -8 -9 -9 -9 -9 -9 -9 -9 -9 -10 -10
-7 -7 -8 -8 -8 -7 -7 -7 -8 -9 -8 -8 -8 -8 -8 -8 -7 -7 -7 -6 -6 -6 -6 -6 -7 -7 -7 -7 -7 -8 -8 -8 -8 -8 -8 -9 -9 -9 -9 -9 -9 -9 -10
-6 -7 -8 -8 -8 -8 -8 -8 -9 -9 -8 -8 -8 -8 -8 -8 -7 -7 -7 -6 -6 -6 -6 -6 -6 -7 -7 -7 -7 -8 -8 -8 -8 -8 -8 -8 -8 -8 -9 -9 -9 -9 -9
-6 -7 -7 -7 -8 -7 -7 -7 -8 -8 -8 -8 -8 -8 -8 -7 -7 -6 -6 -6 -6 -6 -6 -6 -6 -6 -6 -7 -7 -8 -8 -8 -8 -8 -8 -8 -9 -8 -9 -9 -9 -9 -9
-6 -6 -6 -7 -7 -7 -7 -7 -7 -8 -8 -8 -7 -8 -8 -7 -7 -6 -6 -6 -6 -6 -6 -6 -5 -5 -6 -6 -7 -7 -8 -8 -8 -8 -8 -8 -8 -8 -8 -8 -8 -9 -9
-6 -6 -6 -6 -7 -7 -7 -7 -7 -7 -8 -8 -7 -7 -8 -7 -6 -6 -7 -7 -6 -6 -6 -6 -6 -6 -6 -6 -6 -6 -8 -8 -8 -8 -8 -8 -9 -8 -8 -7 -8 -8 -8
-6 -6 -6 -6 -6 -6 -7 -7 -7 -7 -7 -7 -7 -7 -7 -6 -6 -7 -7 -6 -6 -7 -7 -7 -7 -7 -7 -7 -6 -6 -7 -8 -9 -9 -9 -8 -8 -8 -8 -9 -9 -9 -9
-5 -6 -6 -6 -6 -6 -7 -7 -7 -7 -7 -7 -7 -6 -6 -6 -6 -7 -6 -6 -5 -5 -7 -7 -7 -6 -6 -6 -7 -8 -7 -7 -7 -6 -7 -8 -8 -7 -5 -9 -9 -7 -8
-5 -6 -6 -6 -6 -6 -6 -7 -7 -7 -7 -7 -6 -6 -6 -6 -6 -6 -6 -6 -5 -5 -6 -7 -6 -6 -7 -8 -6 -5 -6 -7 -7 -7 -8 -8 -7 -7 -7 -7 -6 -7 -6
-5 -5 -6 -6 -6 -6 -6 -7 -7 -7 -7 -7 -6 -6 -6 -6 -6 -6 -6 -6 -6 -8 -7 -6 -6 -7 -8 -8 -7 -7 -6 -7 -7 -8 -8 -8 -8 -7 -7 -7 -7 -7 -8
-5 -5 -5 -6 -6 -6 -6 -6 -6 -6 -6 -6 -6 -6 -6 -6 -6 -6 -6 -6 -6 -6 -7 -5 -4 -6 -7 -6 -6 -6 -7 -6 -6 -4 -7 -8 -8 -8 -7 -8 -8 -7 -7
-5 -6 -5 -6 -6 -6 -6 -6 -6 -7 -6 -6 -6 -6 -6 -6 -6 -6 -6 -6 -6 -6 -6 -5 -5 -5 -5 -6 -6 -6 -6 -6 -7 -7 -6 -6 -7 -7 -6 -6 -6 -6 -6
Height
5864 5866 5869 5871 5872 5873 5872 5872 5874 5877 5879 5880 5881 5885 5889 5891 5895 5897 5898 5900 5901 5901 5902 5904 5904 5905 5906 5906 5907 5907 5907 5907 5908 5908 5908 5908 5909 5909 5909 5910 5910 5909 5908
5865 5865 5868 5870 5871 5873 5872 5873 5875 5876 5879 5880 5883 5887 5891 5894 5898 5898 5899 5901 5902 5903 5904 5905 5907 5908 5908 5909 5909 5909 5909 5910 5910 5910 5910 5911 5912 5912 5911 5911 5911 5911 5910
5866 5869 5871 5871 5871 5872 5871 5873 5874 5879 5881 5882 5884 5887 5891 5896 5899 5900 5900 5903 5904 5905 5907 5908 5909 5911 5910 5911 5911 5912 5913 5914 5914 5914 5914 5914 5914 5914 5913 5913 5912 5912 5911
5871 5872 5872 5872 5871 5871 5872 5873 5875 5877 5881 5884 5886 5889 5893 5897 5900 5900 5901 5904 5906 5908 5910 5911 5911 5913 5913 5914 5914 5914 5917 5916 5916 5917 5916 5916 5916 5916 5915 5915 5914 5914 5914
5870 5870 5873 5872 5870 5870 5873 5874 5877 5879 5881 5885 5888 5892 5896 5898 5899 5903 5901 5906 5910 5911 5912 5913 5915 5914 5916 5916 5916 5916 5918 5919 5919 5919 5918 5918 5918 5918 5917 5917 5917 5916 5915
5871 5865 5871 5875 5875 5876 5875 5877 5878 5881 5885 5888 5892 5895 5897 5899 5901 5904 5904 5909 5911 5913 5914 5915 5917 5917 5918 5919 5918 5919 5920 5921 5920 5920 5920 5920 5920 5920 5920 5919 5919 5918 5917
5872 5875 5873 5880 5881 5880 5880 5880 5880 5885 5889 5891 5896 5897 5899 5901 5904 5906 5908 5911 5913 5915 5916 5918 5918 5919 5920 5921 5921 5922 5922 5922 5923 5922 5922 5922 5922 5921 5921 5921 5920 5919 5918
5877 5880 5878 5883 5884 5883 5883 5885 5886 5890 5893 5895 5898 5898 5901 5904 5906 5908 5910 5913 5916 5917 5919 5920 5920 5921 5922 5923 5924 5924 5925 5924 5925 5925 5924 5925 5924 5924 5924 5923 5922 5921 5919
5877 5879 5885 5885 5886 5885 5886 5887 5891 5892 5895 5896 5899 5902 5904 5906 5908 5911 5914 5916 5917 5919 5921 5921 5922 5923 5925 5926 5926 5927 5927 5927 5928 5927 5927 5927 5926 5926 5926 5925 5924 5923 5922
5880 5880 5886 5886 5887 5888 5889 5891 5893 5896 5897 5898 5900 5904 5907 5909 5911 5914 5917 5918 5919 5921 5922 5924 5924 5926 5927 5928 5929 5929 5929 5930 5929 5928 5928 5928 5928 5928 5928 5927 5926 5925 5924
5880 5881 5884 5882 5883 5889 5893 5893 5894 5895 5899 5900 5902 5905 5908 5911 5913 5916 5919 5920 5921 5923 5925 5926 5927 5929 5930 5931 5931 5932 5931 5931 5930 5930 5930 5930 5930 5931 5931 5930 5929 5928 5926
5882 5875 5885 5880 5884 5888 5894 5891 5890 5893 5896 5902 5904 5906 5910 5913 5915 5918 5921 5923 5924 5926 5927 5929 5930 5932 5933 5933 5934 5933 5932 5933 5932 5931 5932 5933 5933 5934 5933 5933 5931 5930 5928
5890 5890 5890 5886 5881 5887 5891 5889 5896 5891 5899 5902 5904 5907 5908 5914 5917 5921 5923 5925 5927 5928 5929 5932 5932 5934 5935 5936 5936 5933 5935 5934 5934 5934 5935 5936 5936 5936 5935 5934 5933 5932 5930
5888 5891 5886 5891 5892 5895 5892 5886 5893 5899 5899 5902 5906 5908 5912 5915 5919 5923 5925 5927 5929 5931 5932 5934 5936 5936 5937 5939 5936 5936 5937 5937 5937 5938 5939 5939 5939 5939 5938 5937 5935 5934 5932
5892 5891 5888 5889 5895 5896 5894 5895 5898 5901 5903 5905 5906 5909 5913 5917 5921 5924 5926 5929 5931 5933 5936 5937 5938 5939 5940 5939 5939 5939 5940 5940 5941 5941 5942 5943 5942 5941 5940 5940 5938 5937 5935
5894 5895 5895 5891 5891 5894 5897 5902 5899 5900 5903 5906 5909 5911 5915 5919 5923 5926 5929 5931 5934 5937 5938 5940 5941 5942 5941 5942 5941 5942 5942 5942 5943 5944 5945 5945 5944 5943 5943 5942 5941 5938 5935
5895 5897 5897 5898 5897 5898 5901 5901 5898 5900 5902 5907 5909 5913 5917 5921 5924 5927 5931 5934 5937 5939 5941 5942 5943 5944 5944 5943 5944 5944 5944 5945 5945 5946 5946 5946 5946 5945 5945 5943 5942 5939 5935
5896 5898 5899 5900 5900 5900 5903 5904 5901 5901 5905 5908 5910 5914 5918 5923 5926 5929 5932 5935 5938 5941 5942 5944 5944 5945 5944 5945 5945 5946 5946 5947 5947 5947 5947 5946 5945 5944 5944 5943 5941 5938 5936
5898 5898 5901 5903 5902 5902 5903 5905 5906 5909 5909 5908 5910 5915 5918 5922 5927 5930 5934 5935 5936 5938 5940 5943 5944 5946 5946 5946 5945 5946 5948 5948 5947 5947 5946 5945 5944 5942 5941 5941 5940 5938 5935
5900 5900 5901 5903 5904 5905 5905 5906 5907 5911 5913 5913 5913 5916 5920 5923 5927 5931 5930 5929 5931 5928 5931 5937 5944 5946 5947 5947 5948 5949 5950 5951 5949 5949 5947 5946 5944 5941 5941 5941 5942 5940 5938
5902 5903 5903 5904 5906 5907 5907 5908 5910 5911 5914 5913 5915 5918 5921 5924 5927 5927 5932 5932 5932 5933 5913 5937 5936 5939 5945 5945 5949 5947 5947 5946 5944 5943 5941 5942 5943 5938 5941 5941 5937 5941 5941
5903 5904 5905 5906 5907 5908 5910 5911 5912 5914 5915 5916 5917 5919 5923 5925 5926 5928 5931 5932 5934 5943 5934 5935 5947 5940 5948 5947 5948 5936 5946 5947 5946 5945 5944 5944 5943 5945 5934 5934 5931 5943 5935
5903 5905 5906 5906 5908 5910 5911 5913 5915 5915 5916 5914 5920 5921 5924 5926 5928 5931 5934 5934 5935 5940 5936 5938 5948 5940 5945 5942 5947 5950 5947 5944 5947 5945 5947 5941 5940 5944 5938 5938 5934 5923 5932
5903 5905 5907 5908 5909 5910 5912 5913 5916 5917 5919 5920 5921 5924 5925 5928 5930 5932 5933 5933 5935 5930 5908 5940 5946 5945 5945 5930 5944 5947 5949 5947 5945 5947 5943 5940 5940 5939 5941 5939 5929 5939 5939
5903 5904 5907 5908 5910 5910 5912 5913 5917 5919 5920 5922 5924 5925 5927 5929 5931 5933 5934 5935 5937 5938 5934 5940 5946 5952 5946 5941 5939 5942 5945 5946 5944 5948 5943 5940 5941 5937 5934 5939 5931 5936 5935
5901 5904 5905 5907 5910 5912 5914 5915 5916 5918 5921 5924 5925 5927 5928 5929 5931 5933 5934 5934 5934 5936 5938 5939 5941 5944 5944 5944 5944 5945 5944 5945 5940 5939 5942 5943 5941 5942 5936 5939 5938 5941 5943
Wind_Speed
10 6 8 10 7 10 10 7 6 14 21 19 22 23 20 15 13 13 13 11 11 11 13 14 15 14 13 11 9 9 11 12 12 12 13 14 13 13 12 11 11 11 10
3 1 4 5 7 9 13 7 6 22 24 19 27 26 21 19 15 15 15 12 13 14 15 15 14 14 13 13 12 11 12 12 13 15 15 13 12 12 11 11 10 10 10
4 1 2 6 5 8 14 11 11 17 19 23 25 24 22 20 16 15 16 16 15 15 15 15 14 14 14 14 14 12 13 14 15 14 12 11 11 11 11 10 11 10 10
4 2 2 5 5 5 11 11 14 24 28 22 21 22 22 20 19 18 18 16 17 16 14 16 15 14 15 15 14 14 16 15 14 13 11 11 10 10 11 11 11 11 12
8 7 7 5 6 3 13 17 16 21 24 24 22 22 20 20 20 18 20 18 17 16 16 16 15 15 14 14 15 16 16 15 12 12 11 11 11 11 12 12 11 12 12
12 15 8 6 5 8 20 22 22 22 23 23 21 21 22 21 21 18 19 17 16 17 17 16 15 14 13 16 17 16 15 13 12 11 12 13 14 15 13 13 12 12 11
16 10 14 9 10 12 12 13 19 19 20 21 19 20 20 20 20 19 18 15 16 16 17 17 15 16 17 17 16 15 13 14 12 13 14 13 15 15 13 13 11 11 11
0 6 10 8 9 13 15 15 16 17 18 18 17 18 18 18 18 19 19 15 19 18 17 16 16 19 19 17 17 15 14 15 12 13 13 13 14 14 13 12 11 11 11
5 7 4 5 7 10 11 11 12 15 17 16 16 16 16 18 18 19 20 21 20 17 16 17 18 19 18 17 17 16 15 15 11 12 12 13 14 13 13 12 12 12 12
11 11 6 5 5 7 8 9 10 12 15 19 17 15 16 16 18 19 18 19 18 16 16 19 20 19 18 17 17 16 15 12 12 12 11 12 13 13 13 14 14 14 15
3 10 9 8 11 7 7 9 11 12 14 15 18 16 14 15 18 20 19 18 17 17 20 21 20 18 18 17 16 16 14 15 14 14 15 15 15 16 17 16 17 17 17
1 4 10 4 10 9 8 10 15 16 17 16 16 16 17 18 18 20 21 18 17 18 19 19 19 18 17 17 15 16 19 16 17 16 17 17 18 18 19 18 18 18 17
7 8 8 10 8 16 13 10 9 18 16 16 16 15 13 23 17 20 20 18 18 18 19 17 19 19 18 15 14 20 18 20 21 22 21 20 20 19 18 17 16 16 16
6 8 3 8 11 12 15 17 9 12 14 15 16 16 21 20 20 21 21 19 19 17 19 17 16 18 17 15 16 19 20 20 21 22 22 20 17 16 16 15 14 14 14
6 6 3 3 6 7 7 5 11 11 14 15 17 19 19 21 20 22 22 20 19 18 18 17 17 16 17 16 16 18 19 19 19 18 17 16 14 13 13 12 12 12 13
7 6 5 2 5 7 8 13 16 17 15 15 16 19 21 21 20 21 21 19 19 17 17 16 16 14 16 15 16 16 16 16 15 14 13 12 11 10 11 11 12 13 13
7 6 5 5 4 6 9 13 15 16 18 17 18 21 22 20 19 21 21 19 19 18 16 15 15 15 12 14 14 13 12 12 11 11 10 8 9 9 9 10 12 13 14
8 7 4 4 5 6 9 14 14 12 17 17 19 21 23 23 19 23 23 20 19 19 15 13 13 12 11 12 11 11 10 9 8 7 7 6 6 6 8 10 12 15 15
9 8 6 4 4 6 6 11 13 14 18 19 19 20 23 25 22 23 23 21 20 21 18 14 9 8 8 7 8 9 8 7 5 5 3 3 5 6 8 11 15 12 17
9 8 5 2 3 5 5 10 14 14 12 17 19 20 22 26 24 23 25 25 23 25 26 22 14 9 8 6 3 3 5 3 2 1 2 3 3 5 8 11 15 16 14
10 8 7 4 2 4 6 6 14 11 12 15 14 19 22 23 24 24 24 23 22 18 22 20 21 16 14 11 3 1 2 6 6 6 5 5 3 0 8 5 16 12 10
10 10 8 8 4 4 6 7 10 11 13 14 16 20 21 23 25 24 24 21 16 11 9 9 10 8 5 4 5 11 5 6 10 7 4 5 6 4 5 20 18 4 8
10 12 11 9 7 5 6 7 8 10 14 17 18 20 21 22 22 21 21 19 16 12 15 9 11 5 7 10 7 5 4 6 14 6 5 4 7 7 6 9 6 16 10
11 11 13 12 9 7 7 7 7 10 11 15 19 20 19 18 18 19 18 15 15 17 5 13 8 6 11 15 5 5 6 7 9 10 12 6 18 14 4 12 17 8 9
11 13 13 14 14 12 11 10 8 8 11 14 18 19 17 17 17 15 15 15 13 10 6 9 8 12 10 7 4 8 5 9 10 18 8 11 14 13 12 7 14 14 14
14 12 14 15 16 16 14 13 11 11 11 11 13 14 16 15 15 16 16 15 13 12 10 10 8 5 6 8 9 7 9 11 11 16 15 11 14 16 13 12 11 5 10
Wind_Direction
221 250 213 205 205 203 222 229 223 196 174 181 173 169 160 151 146 136 129 127 120 111 102 101 97 90 87 82 86 87 84 83 80 81 80 80 82 81 83 83 79 74 71
24 248 235 223 220 199 208 219 188 186 178 174 163 156 154 145 143 134 130 127 117 111 111 103 91 83 88 93 91 100 90 86 84 83 80 79 79 76 72 71 71 72 69
5 316 238 205 183 207 217 206 219 203 182 179 158 155 149 140 138 134 128 121 117 114 111 101 94 94 94 95 104 97 90 90 87 84 84 78 74 70 70 64 73 74 71
50 46 292 211 181 174 196 183 206 193 173 159 152 146 136 137 136 132 125 124 122 114 106 106 103 104 99 101 102 103 99 91 87 79 74 68 63 62 65 65 71 69 69
121 104 43 55 40 99 165 177 186 185 160 144 141 133 135 135 131 134 125 125 123 119 114 108 112 104 100 103 102 98 100 90 80 74 67 66 67 66 66 74 69 69 68
162 117 103 109 114 128 176 155 144 139 134 130 131 138 137 136 133 135 127 128 127 120 115 117 111 105 104 103 104 98 94 88 76 72 68 68 68 69 71 74 70 66 65
47 92 104 112 120 117 117 135 125 128 132 135 139 138 137 135 135 130 123 126 132 124 122 118 109 107 107 107 102 97 89 87 82 76 73 74 74 74 74 76 75 74 70
317 106 106 121 116 112 112 123 128 137 137 136 136 130 133 135 134 125 116 116 144 120 120 117 109 109 108 104 99 93 90 86 80 78 76 74 72 74 78 78 76 72 69
87 77 113 127 127 122 127 132 142 146 143 135 133 137 139 140 136 132 125 124 127 125 118 113 111 109 106 103 98 96 91 83 79 77 73 74 77 78 77 73 66 58 50
143 123 118 124 133 141 148 152 146 143 153 157 138 137 140 145 141 139 132 128 125 117 115 117 113 109 107 103 100 93 82 75 74 80 83 83 84 79 73 66 61 56 51
123 123 123 148 144 146 157 163 165 164 158 155 157 150 145 151 144 145 138 129 126 119 117 114 113 111 108 104 97 88 80 77 84 87 89 89 82 74 67 64 60 56 53
102 95 125 121 98 127 146 177 183 174 163 172 167 166 167 151 148 151 142 133 127 119 118 117 116 112 107 102 99 90 86 87 82 85 88 87 83 79 75 69 64 59 54
122 131 147 148 170 139 151 177 177 154 165 174 166 156 149 166 154 155 143 132 126 124 119 121 118 115 111 107 98 94 97 90 87 87 87 86 86 84 80 72 64 61 54
87 105 100 119 172 167 165 164 154 144 150 163 165 158 152 146 154 155 146 135 129 128 121 119 119 118 118 109 100 105 101 96 94 91 92 91 88 81 75 71 63 55 47
97 89 57 71 150 144 141 117 155 151 151 158 160 159 155 160 155 155 150 135 135 128 122 120 112 120 119 108 105 107 106 103 96 95 94 90 80 75 69 61 53 41 32
101 102 126 100 78 110 168 181 173 157 149 148 157 158 156 156 156 155 150 137 135 123 120 122 121 121 121 116 110 113 113 109 106 96 87 83 77 64 55 45 32 22 14
98 99 91 106 125 144 166 177 187 137 145 152 158 158 156 154 152 155 152 140 139 129 126 132 129 128 130 121 116 113 108 107 103 96 89 77 64 49 44 27 17 13 358
113 103 98 95 96 114 144 166 169 155 159 159 157 160 157 165 159 156 155 144 144 142 149 146 136 130 128 122 125 123 120 117 109 100 93 80 62 43 28 17 10 1 8
135 123 108 95 95 109 137 160 169 167 163 167 153 158 154 160 159 157 156 150 154 161 166 164 154 142 127 132 139 143 141 136 124 108 99 71 37 12 17 12 4 25 25
160 147 125 78 61 98 132 183 179 173 159 166 162 159 156 157 158 161 166 166 171 177 177 163 158 158 159 143 132 126 141 135 118 73 3 3 6 357 7 26 11 16 36
180 172 148 147 107 97 128 143 178 182 168 165 157 163 160 162 164 172 169 176 183 197 174 162 168 174 170 161 157 8 196 195 199 202 207 238 278 24 33 329 69 29 14
193 188 174 155 167 112 112 137 140 173 171 174 165 168 166 166 169 173 175 184 188 197 204 157 218 176 179 148 223 180 312 309 289 308 287 6 336 338 235 33 28 356 76
204 193 190 175 167 158 140 146 172 157 165 163 174 172 170 171 174 176 181 186 182 184 191 179 217 119 239 194 214 278 293 352 275 273 336 5 311 286 89 48 59 302 2
217 203 193 194 180 171 163 158 158 174 174 174 176 170 170 172 175 178 182 192 185 219 234 175 215 199 251 249 191 357 332 314 340 10 344 290 320 275 41 323 35 10 11
233 211 202 200 194 192 182 178 172 170 173 172 177 174 174 176 186 191 196 193 195 209 251 211 188 191 245 297 304 298 243 332 349 290 316 349 347 313 355 39 18 1 6
228 226 208 208 202 198 191 184 180 182 171 181 184 187 190 193 196 196 199 199 204 208 209 216 221 226 253 280 294 303 316 322 333 325 337 351 345 337 22 2 10 324 319